TimeCDT,TemperatureF,Dew PointF,Humidity,Sea Level PressureIn,VisibilityMPH,Wind Direction,Wind SpeedMPH,Gust SpeedMPH,PrecipitationIn,Events,Conditions,WindDirDegrees,DateUTC
12:52 AM,55.9,35.1,45,29.68,10.0,ESE,5.8,-,N/A,,Clear,120,2013-04-28 05:52:00
1:52 AM,55.9,36.0,47,29.66,10.0,SE,6.9,-,N/A,,Clear,130,2013-04-28 06:52:00
2:52 AM,54.0,35.1,49,29.65,10.0,SE,9.2,-,N/A,,Clear,130,2013-04-28 07:52:00
3:52 AM,54.0,35.1,49,29.62,10.0,SE,8.1,-,N/A,,Clear,130,2013-04-28 08:52:00
4:52 AM,53.1,36.0,52,29.64,10.0,Calm,Calm,-,N/A,,Clear,0,2013-04-28 09:52:00
5:52 AM,55.0,35.1,47,29.63,10.0,North,5.8,-,N/A,,Clear,350,2013-04-28 10:52:00
6:52 AM,55.0,35.1,47,29.65,10.0,NW,10.4,-,N/A,,Clear,320,2013-04-28 11:52:00
7:52 AM,57.9,35.1,42,29.68,10.0,NW,12.7,-,N/A,,Clear,320,2013-04-28 12:52:00
8:52 AM,60.1,35.1,39,29.69,10.0,NW,13.8,-,N/A,,Clear,320,2013-04-28 13:52:00
9:52 AM,62.1,35.1,37,29.71,10.0,NW,18.4,-,N/A,,Clear,320,2013-04-28 14:52:00
10:52 AM,61.0,36.0,39,29.74,10.0,NNW,16.1,-,N/A,,Mostly Cloudy,330,2013-04-28 15:52:00
11:52 AM,60.1,35.1,39,29.76,10.0,NNW,21.9,27.6,N/A,,Overcast,340,2013-04-28 16:52:00
12:52 PM,64.0,36.0,35,29.78,10.0,NW,10.4,-,N/A,,Scattered Clouds,310,2013-04-28 17:52:00
1:52 PM,66.0,35.1,32,29.77,10.0,NW,11.5,21.9,N/A,,Scattered Clouds,310,2013-04-28 18:52:00
2:52 PM,69.1,35.1,29,29.77,10.0,North,13.8,-,N/A,,Clear,350,2013-04-28 19:52:00
3:52 PM,66.9,34.0,30,29.79,10.0,North,16.1,23.0,N/A,,Clear,360,2013-04-28 20:52:00
4:52 PM,68.0,30.0,24,29.79,10.0,North,15.0,-,N/A,,Clear,360,2013-04-28 21:52:00
5:52 PM,66.9,25.0,21,29.81,10.0,NNE,18.4,25.3,N/A,,Clear,20,2013-04-28 22:52:00
6:52 PM,66.0,21.9,19,29.82,10.0,NNE,12.7,-,N/A,,Clear,30,2013-04-28 23:52:00
7:52 PM,62.1,24.1,23,29.84,10.0,NNE,12.7,-,N/A,,Clear,30,2013-04-29 00:52:00
8:52 PM,54.0,24.1,31,29.86,10.0,NE,11.5,-,N/A,,Clear,40,2013-04-29 01:52:00
9:52 PM,52.0,24.1,34,29.87,10.0,ENE,12.7,-,N/A,,Clear,60,2013-04-29 02:52:00
10:52 PM,50.0,24.1,36,29.88,10.0,ENE,12.7,-,N/A,,Clear,70,2013-04-29 03:52:00
11:52 PM,46.0,25.0,44,29.88,10.0,Calm,Calm,-,N/A,,Clear,0,2013-04-29 04:52:00